Greenwood, Nova Scotia

1:20 PM AST on December 15, 2017 (GMT -0400)
Greenwood

Weather History for CYZX - June, 2013

Change the Weather History Date:

Sunday, June 2, 2013

  Actual Average Record
Temperature  
Mean Temperature 71 °F -  
Max Temperature 86 °F 72 °F 86 °F (2013)
Min Temperature 56 °F 49 °F 37 °F (1997)
Cooling Degree Days 6    
Growing Degree Days 21 (Base 50)    
Moisture  
Dew Point 62 °F    
Average Humidity 75    
Maximum Humidity 94    
Minimum Humidity 48    
Precipitation  
Precipitation 0.00 in 0.11 in - ()
Sea Level Pressure  
Sea Level Pressure 29.84 in    
Wind  
Wind Speed 5 mph ()    
Max Wind Speed 21 mph    
Max Gust Speed 30 mph    
Visibility 12.5 miles    
Events      
Averages and records for this station are not official NWS values.
T = Trace of Precipitation, MM = Missing Value Source: Averaged Metar Reports

Daily Weather History Graph

Daily Weather History Graph

Search for Another Location

Airport or City:

Trip Planner

Search our weather history database for the weather conditions in past years. The results will help you decide how hot, cold, wet, or windy it might be!

Date:

Astronomy

Jun. 02, 2013 Rise Set
Actual Time 5:35 AM ADT 9:00 PM ADT
Civil Twilight 4:59 AM ADT 9:36 PM ADT
Nautical Twilight 4:11 AM ADT 10:24 PM ADT
Astronomical Twilight 3:11 AM ADT 11:25 PM ADT
Moon 2:14 AM ADT (6/2) 3:13 PM ADT (6/2)
Length of Visible Light 16h 37m
Length of Day
15h 24m
Waning Crescent, 31% of the Moon is Illuminated
Jun 2
Waning Crescent
Jun 8
New
Jun 16
First Quarter
Jun 23
Full
Jun 30
Last Quarter

Hourly Weather History & Observations

Time (ADT) Temp. Heat Index Dew Point Humidity Pressure Visibility Wind Dir Wind Speed Gust Speed Precip Events Conditions
12:00 AM 62.6 °F - 59.0 °F 88% 29.88 in 15.0 mi NNW 2.3 mph - N/A   Mostly Cloudy
1:00 AM 60.8 °F - 57.2 °F 88% 29.87 in 15.0 mi Calm Calm - N/A   Scattered Clouds
2:00 AM 60.8 °F - 57.2 °F 88% 29.86 in 15.0 mi SE 4.6 mph - N/A   Scattered Clouds
3:00 AM 59 °F - 57 °F 92% 29.86 in 12 mi North 2.3 mph - -   Scattered Clouds
3:00 AM 59.0 °F - 57.2 °F 94% 29.86 in 12.0 mi Calm Calm - N/A   Scattered Clouds
4:00 AM 57.2 °F - 55.4 °F 94% 29.84 in 12.0 mi Calm Calm - N/A   Scattered Clouds
5:00 AM 59.0 °F - 57.2 °F 94% 29.83 in 8.0 mi Calm Calm - N/A   Mostly Cloudy
6:00 AM 59.0 °F - 57.2 °F 94% 29.83 in 10.0 mi WNW 5.8 mph - N/A   Overcast
6:36 AM - - - N/A% - 10.0 mi WSW 5.8 mph - N/A   Overcast
7:00 AM 60.8 °F - 59.0 °F 94% 29.84 in 6.0 mi WSW 4.6 mph - N/A   Mostly Cloudy
8:00 AM 62.6 °F - 60.8 °F 94% 29.85 in 6.0 mi SW 4.6 mph - N/A   Mostly Cloudy
9:00 AM 66 °F - 62 °F 83% 29.86 in 6 mi WSW 4.6 mph - -   Mist
9:00 AM 66.2 °F - 62.6 °F 88% 29.86 in 6.0 mi SW 3.5 mph - N/A   Overcast
10:00 AM 69.8 °F - 64.4 °F 83% 29.86 in 12.0 mi SW 5.8 mph - N/A   Mostly Cloudy
11:00 AM 71.6 °F - 64.4 °F 78% 29.84 in 12.0 mi WNW 5.8 mph - N/A   Mostly Cloudy
12:00 PM 75.2 °F - 66.2 °F 73% 29.84 in 12.0 mi West 5.8 mph - N/A   Mostly Cloudy
12:06 PM - - - N/A% - 12.0 mi West 3.5 mph - N/A   Scattered Clouds
1:00 PM 78.8 °F - 66.2 °F 65% 29.84 in 15.0 mi WSW 8.1 mph - N/A   Scattered Clouds
2:00 PM 80.6 °F 83.2 °F 68.0 °F 65% 29.83 in 15.0 mi West 12.7 mph - N/A   Mostly Cloudy
3:00 PM 80 °F - 66 °F 54% 29.83 in 15 mi West 10.4 mph - -   Scattered Clouds
3:00 PM 80.6 °F 82.7 °F 66.2 °F 61% 29.83 in 15.0 mi West 9.2 mph - N/A   Mostly Cloudy
4:00 PM 80.6 °F 82.7 °F 66.2 °F 61% 29.81 in 15.0 mi West 6.9 mph - N/A   Mostly Cloudy
5:00 PM 84.2 °F 87.3 °F 68.0 °F 58% 29.79 in 15.0 mi West 9.2 mph - N/A   Scattered Clouds
6:00 PM 86.0 °F 89.4 °F 68.0 °F 55% 29.78 in 15.0 mi West 8.1 mph - N/A   Partly Cloudy
7:00 PM 82.4 °F 84.6 °F 66.2 °F 58% 29.80 in 15.0 mi West 10.4 mph - N/A   Partly Cloudy
8:00 PM 82.4 °F 83.9 °F 64.4 °F 54% 29.83 in 15.0 mi WSW 20.7 mph 29.9 mph N/A   Partly Cloudy
9:00 PM 78 °F - 62 °F 48% 29.85 in 15 mi SW 13.8 mph - -   Scattered Clouds
9:00 PM 77.0 °F - 62.6 °F 61% 29.85 in 15.0 mi SW 13.8 mph 20.7 mph N/A   Partly Cloudy
10:00 PM 75.2 °F - 62.6 °F 65% 29.85 in 15.0 mi SSW 15.0 mph 23.0 mph N/A   Partly Cloudy
11:00 PM 73.4 °F - 62.6 °F 69% 29.84 in 15.0 mi SW 13.8 mph 20.7 mph N/A   Partly Cloudy